Miscellaneous Local Product
Issued by NWS Hastings, NE

Home | Current Version | Previous Version | Text Only | Print | Product List | Glossary Off
Versions: 1 2 3 4 5 6 7 8 9 10 11 12 13 14 15 16 17 18 19 20 21 22 23 24 25 26 27 28 29 30 31 32 33 34 35 36 37 38 39 40 41 42 43 44 45 46 47 48 49 50

505
AXUS43 KGID 241802
MISGRI

GID CWA HOURLY WEATHER ROUNDUP
NATIONAL WEATHER SERVICE HASTINGS NE
1200 PM CST FRI NOV 24 2017

NOTE: "FAIR" INDICATES FEW OR NO CLOUDS BELOW 12,000 FEET WITH NO
SIGNIFICANT WEATHER AND/OR OBSTRUCTIONS TO VISIBILITY.

...SOUTH CENTRAL NEBRASKA...

CITY           SKY/WX    TMP DP  RH WIND       PRES   REMARKS
GRAND ISLAND   SUNNY     73  38  27 NW35G51   29.61R
KEARNEY        MOSUNNY   73  38  27 N33G43    29.66R
HASTINGS       SUNNY     75  35  23 NW37G49   29.61S
ORD            SUNNY     66  40  38 N37G54    29.66R
YORK           SUNNY     73  39  29 NW28G35   29.55S
AURORA         SUNNY     74  37  26 NW38G47   29.59R
LEXINGTON      SUNNY     74  35  24 NW36G43   29.69R
HOLDREGE       SUNNY     75  38  26 NW26G38   29.65S
HEBRON         SUNNY     77  36  22 W16G24    29.58F

...NEBRASKA PANHANDLE...

CITY           SKY/WX    TMP DP  RH WIND       PRES   REMARKS
CHADRON        CLOUDY    54  30  40 NW18      29.85R
ALLIANCE       SUNNY     57  37  47 N25G32    29.83R
SCOTTSBLUFF    SUNNY     58  35  42 N22G31    29.88R
SIDNEY         MOSUNNY   60  35  39 N26G33    29.86R

...WESTERN AND NORTH CENTRAL NEBRASKA...

CITY           SKY/WX    TMP DP  RH WIND       PRES   REMARKS
VALENTINE      MOSUNNY   62  38  40 NW28G38   29.73R
AINSWORTH      MOSUNNY   59  39  46 NW23G38   29.71F
ONEILL         SUNNY     64  40  41 NW29      29.66S
BROKEN BOW     SUNNY     65  40  39 N31G43    29.71R
IMPERIAL       CLOUDY    71  30  21 NW24G33   29.77S
NORTH PLATTE   CLOUDY    65  36  34 N25G36    29.76R
MCCOOK         CLOUDY    76  34  21 NW37G55   29.69F

...EASTERN NEBRASKA...

CITY           SKY/WX    TMP DP  RH WIND       PRES   REMARKS
NORFOLK        SUNNY     64  39  39 N35G46    29.56R
SO SIOUX CITY  SUNNY     64  41  42 NW36G43   29.50R
TEKAMAH        SUNNY     68  41  37 NW20G28   29.49R
COLUMBUS       SUNNY     70  40  33 NW28G41   29.55R
ALBION         SUNNY     67  39  35 N29G43    29.61R
OMAHA EPPLEY   MOSUNNY   70  41  34 SW13      29.47F
OFFUTT AFB     SUNNY     70  40  33 W16       29.47F
MILLARD        SUNNY     72  43  34 W13G22    29.50R
LINCOLN        SUNNY     75  38  26 W17G26    29.52F
NEBRASKA CITY  SUNNY     69  42  36 SW22      29.51F
BEATRICE       SUNNY     74  41  30 W16G22    29.55F
FALLS CITY     SUNNY     70  40  33 SW18G25   29.53F

...NORTHERN KANSAS...

CITY           SKY/WX    TMP DP  RH WIND       PRES   REMARKS
GOODLAND       CLOUDY    66  32  28 N6        29.78S
HILL CITY      SUNNY     80  32  17 NW25G40   29.69F
NORTON         CLEAR     79  21  11 NW23G38   29.68F
PHILLIPSBURG   SUNNY     82  28  14 W31G37    29.66F
SMITH CENTER   MOSUNNY   79  36  21 NW23G35   29.63F
HAYS           SUNNY     69  40  34 SW10      29.69F
RUSSELL        SUNNY     75  41  29 SW7       29.66F
CONCORDIA      SUNNY     75  39  27 W16       29.60F
SALINA         SUNNY     76  42  29 SW13      29.65F
TOPEKA         SUNNY     68  39  34 SW14G20   29.60F



USA.gov is the U.S. government's official web portal to all federal, state and local government web resources and services.